Change the Weather History Date:

Friday, April 18, 2014

  Actual Average (KBWI) Record (KBWI)
Temperature  
Mean Temperature 45 °F 54 °F  
Max Temperature 51 °F 66 °F 94 °F (1896)
Min Temperature 39 °F 44 °F 26 °F (1875)
Degree Days  
Heating Degree Days 20 11  
Month to date heating degree days 244  
Since 1 July heating degree days 4505  
Cooling Degree Days 0 0  
Month to date cooling degree days 0  
Year to date cooling degree days 1  
Moisture  
Dew Point 34 °F    
Average Humidity 66    
Maximum Humidity 74    
Minimum Humidity 50    
Precipitation  
Precipitation 0.00 in 0.10 in 1.60 in (1924)
Month to date precipitation 1.95  
Year to date precipitation 11.80  
Snow  
Snow 0.00 in 0.00 in T in (2001)
Month to date snowfall 0.0  
Since 1 July snowfall 20.1  
Snow Depth -    
Sea Level Pressure  
Sea Level Pressure 30.44 in    
Wind  
Wind Speed 5 mph (East)    
Max Wind Speed 9 mph    
Max Gust Speed -    
Visibility 10 miles    
Events      
T = Trace of Precipitation, MM = Missing Value Source: NWS Daily Summary

Daily Weather History Graph

Daily Weather History Graph

Search for Another Location

Airport or City:

Trip Planner

Search our weather history database for the weather conditions in past years. The results will help you decide how hot, cold, wet, or windy it might be!

Date:

Astronomy

Apr. 18, 2014 Rise Set
Actual Time 6:25 AM EDT 7:46 PM EDT
Civil Twilight 5:57 AM EDT 8:13 PM EDT
Nautical Twilight 5:24 AM EDT 8:47 PM EDT
Astronomical Twilight 4:49 AM EDT 9:22 PM EDT
Moon 11:28 PM EDT (4/18) 8:46 AM EDT (4/18)
Length of Visible Light 14h 16m
Length of Day
13h 20m
Waning Gibbous, 87% of the Moon is Illuminated
Apr 18
Waning Gibbous
Apr 22
Last Quarter
Apr 29
New
May 6
First Quarter
May 14
Full

Hourly Weather History & Observations

Time (EDT) Temp. Windchill Dew Point Humidity Pressure Visibility Wind Dir Wind Speed Gust Speed Precip Events Conditions
12:54 AM 41.0 °F 38.0 °F 30.9 °F 67% 30.59 in 10.0 mi East 4.6 mph - N/A   Overcast
1:54 AM 41.0 °F 36.4 °F 32.0 °F 70% 30.56 in 10.0 mi ENE 6.9 mph - N/A   Overcast
2:54 AM 41.0 °F 35.2 °F 32.0 °F 70% 30.53 in 10.0 mi East 9.2 mph - N/A   Overcast
3:54 AM 41.0 °F 35.8 °F 32.0 °F 70% 30.51 in 10.0 mi ENE 8.1 mph - N/A   Overcast
4:54 AM 41.0 °F 36.4 °F 32.0 °F 70% 30.50 in 10.0 mi ENE 6.9 mph - N/A   Overcast
5:54 AM 39.9 °F 35.8 °F 32.0 °F 73% 30.52 in 10.0 mi East 5.8 mph - N/A   Overcast
6:54 AM 39.9 °F 35.8 °F 32.0 °F 73% 30.52 in 10.0 mi NE 5.8 mph - N/A   Overcast
7:54 AM 41.0 °F 38.0 °F 32.0 °F 70% 30.51 in 10.0 mi ENE 4.6 mph - N/A   Overcast
8:54 AM 41.0 °F 35.8 °F 33.1 °F 73% 30.52 in 10.0 mi East 8.1 mph - N/A   Overcast
9:54 AM 41.0 °F 35.2 °F 33.1 °F 73% 30.52 in 10.0 mi East 9.2 mph - N/A   Overcast
10:54 AM 42.1 °F 39.2 °F 32.0 °F 67% 30.50 in 10.0 mi ESE 4.6 mph - N/A   Overcast
11:54 AM 43.0 °F 40.3 °F 33.1 °F 68% 30.50 in 10.0 mi SE 4.6 mph - N/A   Overcast
12:20 PM 43.0 °F 40.3 °F 33.1 °F 68% 30.48 in 10.0 mi SE 4.6 mph - N/A   Scattered Clouds
12:54 PM 45.0 °F 41.2 °F 34.0 °F 65% 30.47 in 10.0 mi SSE 6.9 mph - N/A   Clear
1:54 PM 46.0 °F 43.9 °F 34.0 °F 63% 30.45 in 10.0 mi SE 4.6 mph - N/A   Clear
2:54 PM 46.9 °F - 34.0 °F 61% 30.41 in 10.0 mi Calm Calm - N/A   Clear
3:54 PM 48.0 °F - 35.1 °F 61% 30.38 in 10.0 mi ESE 3.5 mph - N/A   Clear
4:54 PM 51.1 °F - 35.1 °F 54% 30.37 in 10.0 mi Calm Calm - N/A   Clear
5:54 PM 51.1 °F - 33.1 °F 50% 30.32 in 10.0 mi Calm Calm - N/A   Clear
6:54 PM 51.1 °F - 34.0 °F 52% 30.31 in 10.0 mi Calm Calm - N/A   Clear
7:54 PM 50.0 °F - 37.0 °F 61% 30.31 in 10.0 mi ESE 3.5 mph - N/A   Clear
8:54 PM 48.9 °F - 35.1 °F 59% 30.32 in 10.0 mi Calm Calm - N/A   Clear
9:54 PM 48.9 °F - 36.0 °F 61% 30.32 in 10.0 mi Calm Calm - N/A   Clear
10:54 PM 48.0 °F - 39.9 °F 74% 30.30 in 10.0 mi Calm Calm - N/A   Clear
11:54 PM 48.0 °F - 39.0 °F 71% 30.29 in 10.0 mi Calm Calm - N/A   Clear